軌道要素
Epoch 2024 Mar. 31.0 TT = JDT 2460400.5
T 2024 July 14.49818 TT Rudenko
q 0.9644230 (2000.0) P Q
n 0.19369890 Peri. 152.49420 -0.78849441 +0.52355973
a 2.9583617 Node 62.76983 -0.60960640 -0.59567074
e 0.6740010 Incl. 21.28250 -0.08158807 -0.60914824
P 5.09
>From 2236 observations 2013 Sept. 8-2024 May 9, mean residual 0".4.
|